Multibeam Report for EX1401


Ship Name: Okeanos Explorer
Chief Scientist: Lobecker, Elizabeth
NOAA/OAR/OER
Source Organization: NOAA Office of Ocean Exploration and Research (OER)
Start Date: 2014-02-06
End Date: 2014-02-09


View ISO Metadata

Visit the full NCEI Bathymetry Viewer


Multibeam Bathymetry

Cruise Details

Project: Ship Shakedown and Patch Test
Instrument: Kongsberg EM302

Data Quality

Number of Files: 82
Number of Records: 54202
BATHYMETRY DATA Quantity Percentage
Number of Beams 7863696 100%
Number of Good Beams 6970653 88.64%
Number of Zero Beams 0 0%
Number of Flagged Beams 893043 11.36%

Navigation Totals

Total Time: 19.253 hours
Total Track Length: 278.4776 km
Average Speed: 14.464 km/hr (7.8099 knots)

Cruise Bounds

Northern Extent: 39.974823
Southern Extent: 39.719246
Western Extent: -69.93621
Eastern Extent: -69.368416

Limits

Minimum Sonar Depth 0.6089 Maximum Sonar Depth 3.8698
Minimum Altitude 147.357 Maximum Altitude 2567.0576
Minimum Depth 144.1603 Maximum Depth 2864.2607

File Information

Full Resolution Bathymetry as collected (raw): 35

Files File Size Description
0001_20140207_181851_EX1401_MB.all.mb58.gz 55.03MB Kongsberg multibeam vendor format
0002_20140207_191857_EX1401_MB.all.mb58.gz 60.09MB Kongsberg multibeam vendor format
0003_20140207_201854_EX1401_MB.all.mb58.gz 28.61MB Kongsberg multibeam vendor format
0004_20140207_203825_EX1401_MB.all.mb58.gz 15.58MB Kongsberg multibeam vendor format
0005_20140207_204808_EX1401_MB.all.mb58.gz 74.81MB Kongsberg multibeam vendor format
0006_20140207_214807_EX1401_MB.all.mb58.gz 56.83MB Kongsberg multibeam vendor format
0007_20140207_224806_EX1401_MB.all.mb58.gz 44.13MB Kongsberg multibeam vendor format
0008_20140208_024149_EX1401_MB.all.mb58.gz 56.14MB Kongsberg multibeam vendor format
0009_20140208_034148_EX1401_MB.all.mb58.gz 34.99MB Kongsberg multibeam vendor format
0010_20140208_041115_EX1401_MB.all.mb58.gz 15.13MB Kongsberg multibeam vendor format
0011_20140208_042113_EX1401_MB.all.mb58.gz 67.29MB Kongsberg multibeam vendor format
0012_20140208_052116_EX1401_MB.all.mb58.gz 30.75MB Kongsberg multibeam vendor format
0013_20140208_055431_EX1401_MB.all.mb58.gz 16.17MB Kongsberg multibeam vendor format
0014_20140208_061203_EX1401_MB.all.mb58.gz 56.52MB Kongsberg multibeam vendor format
0015_20140208_071202_EX1401_MB.all.mb58.gz 42.34MB Kongsberg multibeam vendor format
0016_20140208_074524_EX1401_MB.all.mb58.gz 22.48MB Kongsberg multibeam vendor format
0017_20140208_080631_EX1401_MB.all.mb58.gz 60.7KB Kongsberg multibeam vendor format
0018_20140208_080636_EX1401_MB.all.mb58.gz 59.7KB Kongsberg multibeam vendor format
0019_20140208_080641_EX1401_MB.all.mb58.gz 0.80MB Kongsberg multibeam vendor format
0020_20140208_080756_EX1401_MB.all.mb58.gz 4.18MB Kongsberg multibeam vendor format
0021_20140208_081024_EX1401_MB.all.mb58.gz 76.77MB Kongsberg multibeam vendor format
0022_20140208_091029_EX1401_MB.all.mb58.gz 32.48MB Kongsberg multibeam vendor format
0023_20140208_094544_EX1401_MB.all.mb58.gz 14.88MB Kongsberg multibeam vendor format
0024_20140208_104542_EX1401_MB.all.mb58.gz 2.38MB Kongsberg multibeam vendor format
0025_20140208_104816_EX1401_MB.all.mb58.gz 34.41MB Kongsberg multibeam vendor format
0026_20140208_112509_EX1401_MB.all.mb58.gz 23.47MB Kongsberg multibeam vendor format
0027_20140208_115037_EX1401_MB.all.mb58.gz 43.05MB Kongsberg multibeam vendor format
0028_20140208_123833_EX1401_MB.all.mb58.gz 15.90MB Kongsberg multibeam vendor format
0029_20140208_125547_EX1401_MB.all.mb58.gz 37.39MB Kongsberg multibeam vendor format
0030_20140208_203811_EX1401_MB.all.mb58.gz 20.49MB Kongsberg multibeam vendor format
0031_20140208_211216_EX1401_MB.all.mb58.gz 21.65MB Kongsberg multibeam vendor format
0032_20140208_220011_EX1401_MB.all.mb58.gz 56.30MB Kongsberg multibeam vendor format
0033_20140208_230016_EX1401_MB.all.mb58.gz 64.17MB Kongsberg multibeam vendor format
0034_20140209_000012_EX1401_MB.all.mb58.gz 104.86MB Kongsberg multibeam vendor format
0035_20140209_010012_EX1401_MB.all.mb58.gz 29.09MB Kongsberg multibeam vendor format

Full Resolution Bathymetry (processed): 31

Files File Size Description
EX1401_Okeanos_March_2011_2014-038_0001_20140207_181851_EX1401_MB.txt.mb162 4.23MB Generic XYZ sounding format
EX1401_Okeanos_March_2011_2014-038_0002_20140207_191857_EX1401_MB.txt.mb162 5.61MB Generic XYZ sounding format
EX1401_Okeanos_March_2011_2014-038_0003_20140207_201854_EX1401_MB.txt.mb162 2.46MB Generic XYZ sounding format
EX1401_Okeanos_March_2011_2014-038_0004_20140207_203825_EX1401_MB.txt.mb162 1.51MB Generic XYZ sounding format
EX1401_Okeanos_March_2011_2014-038_0005_20140207_204808_EX1401_MB.txt.mb162 7.05MB Generic XYZ sounding format
EX1401_Okeanos_March_2011_2014-038_0006_20140207_214807_EX1401_MB.txt.mb162 4.83MB Generic XYZ sounding format
EX1401_Okeanos_March_2011_2014-038_0007_20140207_224806_EX1401_MB.txt.mb162 3.34MB Generic XYZ sounding format
EX1401_Okeanos_March_2011_2014-039_0008_20140208_024149_EX1401_MB.txt.mb162 4.69MB Generic XYZ sounding format
EX1401_Okeanos_March_2011_2014-039_0009_20140208_034148_EX1401_MB.txt.mb162 3.26MB Generic XYZ sounding format
EX1401_Okeanos_March_2011_2014-039_0010_20140208_041115_EX1401_MB.txt.mb162 1.52MB Generic XYZ sounding format
EX1401_Okeanos_March_2011_2014-039_0011_20140208_042113_EX1401_MB.txt.mb162 6.13MB Generic XYZ sounding format
EX1401_Okeanos_March_2011_2014-039_0012_20140208_052116_EX1401_MB.txt.mb162 2.33MB Generic XYZ sounding format
EX1401_Okeanos_March_2011_2014-039_0013_20140208_055431_EX1401_MB.txt.mb162 1.20MB Generic XYZ sounding format
EX1401_Okeanos_March_2011_2014-039_0014_20140208_061203_EX1401_MB.txt.mb162 4.42MB Generic XYZ sounding format
EX1401_Okeanos_March_2011_2014-039_0015_20140208_071202_EX1401_MB.txt.mb162 4.06MB Generic XYZ sounding format
EX1401_Okeanos_March_2011_2014-039_0016_20140208_074524_EX1401_MB.txt.mb162 1.50MB Generic XYZ sounding format
EX1401_Okeanos_March_2011_2014-039_0021_20140208_081024_EX1401_MB.txt.mb162 4.60MB Generic XYZ sounding format
EX1401_Okeanos_March_2011_2014-039_0022_20140208_091029_EX1401_MB.txt.mb162 2.25MB Generic XYZ sounding format
EX1401_Okeanos_March_2011_2014-039_0023_20140208_094544_EX1401_MB.txt.mb162 0.92MB Generic XYZ sounding format
EX1401_Okeanos_March_2011_2014-039_0024_20140208_104542_EX1401_MB.txt.mb162 162.3KB Generic XYZ sounding format
EX1401_Okeanos_March_2011_2014-039_0025_20140208_104816_EX1401_MB.txt.mb162 2.16MB Generic XYZ sounding format
EX1401_Okeanos_March_2011_2014-039_0026_20140208_112509_EX1401_MB.txt.mb162 1.62MB Generic XYZ sounding format
EX1401_Okeanos_March_2011_2014-039_0027_20140208_115037_EX1401_MB.txt.mb162 2.27MB Generic XYZ sounding format
EX1401_Okeanos_March_2011_2014-039_0028_20140208_123833_EX1401_MB.txt.mb162 1.16MB Generic XYZ sounding format
EX1401_Okeanos_March_2011_2014-039_0029_20140208_125547_EX1401_MB.txt.mb162 2.64MB Generic XYZ sounding format
EX1401_Okeanos_March_2011_2014-039_0030_20140208_203811_EX1401_MB.txt.mb162 1.48MB Generic XYZ sounding format
EX1401_Okeanos_March_2011_2014-039_0031_20140208_211216_EX1401_MB.txt.mb162 1.56MB Generic XYZ sounding format
EX1401_Okeanos_March_2011_2014-039_0032_20140208_220011_EX1401_MB.txt.mb162 5.48MB Generic XYZ sounding format
EX1401_Okeanos_March_2011_2014-039_0033_20140208_230016_EX1401_MB.txt.mb162 7.04MB Generic XYZ sounding format
EX1401_Okeanos_March_2011_2014-039_0034_20140209_000012_EX1401_MB.txt.mb162 12.89MB Generic XYZ sounding format
EX1401_Okeanos_March_2011_2014-039_0035_20140209_010012_EX1401_MB.txt.mb162 4.81MB Generic XYZ sounding format

Products: 5

Files File Size Description
EX1401_MB_FNL_30m_WGS84.asc.gz 1.56MB ESRI Arc ASCII
EX1401_MB_FNL_30m_WGS84.kmz.gz 1.60MB Compressed Keyhole Markup Language file
EX1401_MB_FNL_30m_WGS84.sd.gz 2.25MB Fledermaus surface
EX1401_MB_FNL_30m_WGS84.tif.gz 36.32MB GeoTIFF survey image
EX1401_MB_FNL_30m_WGS84.xyz.gz 3.14MB xyz grid file provided by the originator

Metadata Files: 6

Files File Size Description
EX1401_Multibeam.xml NCEI created ISO metadata
EX1401_COLLECTION_UNRESOLVED.xml 10.4KB XML metadata file
EX1401_Multibeam_COLLECTION_UNRESOLVED.xml 20.8KB XML metadata file
EX1401_Profile_COLLECTION_UNRESOLVED.xml 15.0KB XML metadata file
v1_file_metadata.tar.gz 13.0KB File level metadata
v2_file_metadata.tar.gz 14.1KB File level metadata

Ancillary Files: 4

Files File Size Description
asvp.tar.gz 33.5KB Sound Speed Profiles (SSP or SVP)
ctd.tar.gz 41.0KB Conductivity, Temperature, Depth (CTD) data
support_files.tar.gz Supporting data
xbt.tar.gz 109.4KB Expendable Bathythermograph (XBT) data

Water Column Sonar Data

Water Column Sonar Data Available: WCSD Map Viewer